Weather History for KWRL - February, 2012

Change the Weather History Date:

Monday, February 20, 2012

  Actual Average Record
Temperature  
Mean Temperature 22 °F 26 °F  
Max Temperature 37 °F 40 °F 61 °F (1972)
Min Temperature 7 °F 12 °F -11 °F (2006)
Degree Days  
Heating Degree Days 43 39  
Month to date heating degree days 797 858  
Since 1 July heating degree days 4999 5706  
Cooling Degree Days 0 0  
Month to date cooling degree days 0 0  
Year to date cooling degree days 0 0  
Moisture  
Dew Point 14 °F    
Average Humidity 65    
Maximum Humidity 92    
Minimum Humidity 38    
Precipitation  
Precipitation 0.00 in 0.01 in 0.21 in (1998)
Month to date precipitation T 0.13  
Year to date precipitation 0.03 0.36  
Sea Level Pressure  
Sea Level Pressure 29.98 in    
Wind  
Wind Speed 5 mph (SSE)    
Max Wind Speed 8 mph    
Max Gust Speed -    
Visibility 10 miles    
Events      
T = Trace of Precipitation, MM = Missing Value Source: NWS Daily Summary

Daily Weather History Graph

Daily Weather History Graph

Search for Another Location

Airport or City:

Trip Planner

Search our weather history database for the weather conditions in past years. The results will help you decide how hot, cold, wet, or windy it might be!

Date:

Astronomy

Feb. 20, 2012 Rise Set
Actual Time 7:04 AM MST 5:47 PM MST
Civil Twilight 6:34 AM MST 6:17 PM MST
Nautical Twilight 6:01 AM MST 6:50 PM MST
Astronomical Twilight 5:27 AM MST 7:24 PM MST
Moon 6:03 AM MST (2/20) 4:55 PM MST (2/20)
Length of Visible Light 11h 42m
Length of Day
10h 43m
Waning Crescent, 1% of the Moon is Illuminated
Feb 20
Waning Crescent
Feb 21
New
Feb 29
First Quarter
Mar 8
Full
Mar 14
Last Quarter

Hourly Weather History & Observations

Time (MST) Temp. Windchill Dew Point Humidity Pressure Visibility Wind Dir Wind Speed Gust Speed Precip Events Conditions
12:53 AM 18.0 °F 7.7 °F 15.1 °F 88% 29.97 in 10.0 mi South 8.1 mph - N/A   Clear
1:53 AM 16.0 °F 6.3 °F 12.9 °F 88% 29.97 in 10.0 mi South 6.9 mph - N/A   Clear
2:53 AM 15.1 °F 5.2 °F 12.0 °F 88% 29.98 in 10.0 mi South 6.9 mph - N/A   Clear
3:53 AM 14.0 °F 2.9 °F 10.0 °F 84% 29.98 in 10.0 mi South 8.1 mph - N/A   Clear
4:53 AM 10.9 °F 0.2 °F 7.0 °F 84% 30.00 in 10.0 mi South 6.9 mph - N/A   Clear
5:53 AM 8.1 °F - 3.9 °F 83% 30.02 in 10.0 mi Calm Calm - N/A   Clear
6:53 AM 12.0 °F 5.9 °F 7.0 °F 80% 30.02 in 10.0 mi SW 3.5 mph - N/A   Clear
7:53 AM 12.0 °F 0.5 °F 8.1 °F 84% 30.05 in 10.0 mi South 8.1 mph - N/A   Clear
8:53 AM 17.1 °F - 14.0 °F 88% 30.04 in 10.0 mi Calm Calm - N/A   Clear
9:53 AM 24.1 °F - 15.1 °F 69% 30.02 in 10.0 mi Calm Calm - N/A   Clear
10:53 AM 26.1 °F - 17.1 °F 69% 30.03 in 10.0 mi Calm Calm - N/A   Clear
11:53 AM 32.0 °F - 19.0 °F 59% 29.99 in 10.0 mi Calm Calm - N/A   Clear
12:53 PM 34.0 °F 28.8 °F 10.9 °F 38% 29.96 in 10.0 mi ESE 5.8 mph - N/A   Clear
1:53 PM 35.1 °F 28.6 °F 12.0 °F 39% 29.92 in 10.0 mi East 8.1 mph - N/A   Clear
2:53 PM 36.0 °F 30.3 °F 12.0 °F 37% 29.91 in 10.0 mi ESE 6.9 mph - N/A   Clear
3:53 PM 36.0 °F 31.1 °F 12.9 °F 39% 29.91 in 10.0 mi ESE 5.8 mph - N/A   Clear
4:53 PM 34.0 °F 29.8 °F 16.0 °F 48% 29.92 in 10.0 mi SE 4.6 mph - N/A   Partly Cloudy
5:53 PM 27.0 °F 21.6 °F 18.0 °F 69% 29.96 in 10.0 mi SSE 4.6 mph - N/A   Clear
6:53 PM 27.0 °F - 18.0 °F 69% 29.97 in 10.0 mi Calm Calm - N/A   Mostly Cloudy
7:53 PM 25.0 °F 19.3 °F 19.0 °F 78% 29.98 in 10.0 mi SSW 4.6 mph - N/A   Mostly Cloudy
8:53 PM 25.0 °F 17.1 °F 18.0 °F 75% 29.97 in 10.0 mi South 6.9 mph - N/A   Overcast
9:53 PM 24.1 °F 19.7 °F 17.1 °F 75% 29.97 in 10.0 mi South 3.5 mph - N/A   Overcast
10:53 PM 24.1 °F 15.2 °F 17.1 °F 75% 29.96 in 10.0 mi South 8.1 mph - N/A   Mostly Cloudy
11:53 PM 21.0 °F 14.6 °F 15.1 °F 78% 29.94 in 10.0 mi SE 4.6 mph - N/A   Clear